Regional Weather Roundup
Issued by NWS

Home | Current Version | Previous Version | Text Only | Print | Product List | Glossary On
Versions: 1 2 3 4 5 6 7 8 9 10 11 12 13 14 15 16 17 18 19 20 21 22 23 24 25 26 27 28 29 30 31 32 33 34 35 36 37 38 39 40 41 42 43 44 45 46 47 48 49 50
000
ASUS43 KLSX 011957
RWRMO

WEATHER SUMMARY FOR MISSOURI
NATIONAL WEATHER SERVICE SPRINGFIELD MO
200 PM CST WED MAR 01 2017

NOTE: "FAIR" INDICATES FEW OR NO CLOUDS BELOW 12,000 FEET WITH NO
       SIGNIFICANT WEATHER AND/OR OBSTRUCTIONS TO VISIBILITY.
       CURRENT SKY AND/OR WEATHER CONDITIONS ARE NOT AVAILABLE FOR
       CHILLICOTHE AND FARMINGTON.

MOZ001>031-035>038-043-044-053-054-012100-
...NORTHERN AND WESTERN MISSOURI...

CITY           SKY/WX    TMP DP  RH WIND       PRES   REMARKS
KANSAS CTY INT MOSUNNY   49  25  39 NW17G29   30.10S
LEE`S SUMMIT   MOSUNNY   50  27  40 NW24G36   30.11R
ST JOSEPH      SUNNY     49  26  41 NW20      30.11S
CHILLICOTHE      N/A     44  27  51 NW17G29   30.09R

$$
MOZ066>068-077>081-088>096-101>105-012100-
...SOUTHWEST MISSOURI...

CITY           SKY/WX    TMP DP  RH WIND       PRES   REMARKS
SPRINGFIELD    SUNNY     53  26  35 NW16G25   30.10R
JOPLIN         SUNNY     54  25  32 NW18G28   30.16S
BRANSON        MOSUNNY   52  19  28 W12G23    30.11S

$$
MOZ032>034-039>042-045>050-055>058-069>072-012100-
...CENTRAL MISSOURI...

CITY           SKY/WX    TMP DP  RH WIND       PRES   REMARKS
COLUMBIA       NOT AVBL
JEFFERSON CITY MOSUNNY   49  30  48 NW22G38   30.05R
ROLLA          LGT RAIN  50  28  42 W24G33    30.01R
SEDALIA        MOSUNNY   50  31  48 NW21G33   30.08R
WARRENSBURG    SUNNY     50  27  40 W13G28    30.09R

$$
MOZ051-052-059>065-012100-
...EAST CENTRAL MISSOURI...

CITY           SKY/WX    TMP DP  RH WIND       PRES   REMARKS
ST LOUIS INTL  PTSUNNY   47  31  53 W24G39    29.97R

$$
MOZ072>076-082>087-097>100-106>115-012100-
...SOUTH CENTRAL AND SOUTHEAST MISSOURI...

CITY           SKY/WX    TMP DP  RH WIND       PRES   REMARKS
CAPE GIRARDEAU SUNNY     60  27  28 NW22G32   29.94R
POPLAR BLUFF   SUNNY     61  24  24 W24G35    29.97R
WEST PLAINS    SUNNY     56  21  25 NW21G31   30.04R

$$



USA.gov is the U.S. government's official web portal to all federal, state and local government web resources and services.